RANA Weather Reports


Display with metric or nautical units.
time (UTC)temp
F
wind
direction
speed
MPH
gust
MPH
rain 1hr
in
rain 24hr
in
rain mn
in
humidity
%
barometer
mb
20260831084011 61 254 11.0 13.0 0.00 0.00 0.00 89
20260831083510 61 246 11.0 13.0 0.00 0.00 0.00 89
20260831083011 61 232 13.0 16.0 0.00 0.00 0.00 87
20260831082511 61 218 11.0 13.0 0.00 0.00 0.00 86
20260831082010 61 213 9.0 11.0 0.00 0.00 0.00 87
20260831081517 61 199 11.0 13.0 0.00 0.00 0.00 88
20260831081017 59 188 11.0 13.0 0.00 0.00 0.00 89
20260831080510 59 186 11.0 13.0 0.00 0.00 0.00 89
20260831080010 59 185 13.0 16.0 0.00 0.00 0.00 88
20260831075517 59 178 13.0 16.0 0.00 0.00 0.00 88
20260831075012 59 171 11.0 13.0 0.00 0.00 0.00 87
20260831074510 59 177 13.0 18.0 0.00 0.00 0.00 85
20260831074011 59 174 13.0 16.0 0.00 0.00 0.00 85
20260831073518 59 175 11.0 16.0 0.00 0.00 0.00 86
20260831073011 59 179 11.0 16.0 0.00 0.00 0.00 87
20260831072511 59 168 9.0 9.0 0.00 0.00 0.00 89
20260831072010 57 165 9.0 9.0 0.00 0.00 0.00 91
20260831071511 57 173 9.0 11.0 0.00 0.00 0.00 92
20260831071016 57 168 7.0 9.0 0.00 0.00 0.00 92
20260831070510 57 178 9.0 9.0 0.00 0.00 0.00 92
20260831070010 57 166 7.0 9.0 0.00 0.00 0.00 92
20260831065510 57 164 7.0 7.0 0.00 0.00 0.00 90
20260831065017 59 205 9.0 9.0 0.00 0.00 0.00 89
20260831064510 59 205 7.0 9.0 0.00 0.00 0.00 88
20260831064011 59 204 7.0 7.0 0.00 0.00 0.00 90
20260831063510 57 234 4.0 4.0 0.00 0.00 0.00 93
20260831063011 57 255 7.0 7.0 0.00 0.00 0.00 92
20260831062510 57 251 9.0 9.0 0.00 0.00 0.00 90
20260831062010 57 189 9.0 9.0 0.00 0.00 0.00 90
20260831061510 57 150 4.0 9.0 0.00 0.00 0.00 91
20260831061018 57 246 9.0 9.0 0.00 0.00 0.00 92
20260831060511 57 265 9.0 9.0 0.00 0.00 0.00 92
20260831060011 55 278 11.0 11.0 0.00 0.00 0.00 89
20260831055510 55 289 13.0 13.0 0.00 0.00 0.00 89
20260831055010 55 290 16.0 18.0 0.00 0.00 0.00 88
20260831054510 55 286 18.0 20.0 0.00 0.00 0.00 92
20260831054010 54 277 34.0 38.0 0.00 0.00 0.00 91
20260831053511 57 274 20.0 27.0 0.00 0.00 0.00 82
20260831053010 61 168 0.0 0.0 0.00 0.00 0.00 76
20260831052510 61 147 2.0 2.0 0.00 0.00 0.00 76
20260831052015 61 112 0.0 2.0 0.00 0.00 0.00 74
20260831051510 61 104 4.0 7.0 0.00 0.00 0.00 75
20260831051011 59 109 4.0 7.0 0.00 0.00 0.00 76
20260831050511 59 100 4.0 7.0 0.00 0.00 0.00 75
20260831050010 59 101 4.0 4.0 0.00 0.00 0.00 77
20260831045510 59 110 4.0 7.0 0.00 0.00 0.00 78
20260831045010 57 117 7.0 9.0 0.00 0.00 0.00 80
20260831044511 57 125 9.0 9.0 0.00 0.00 0.00 80
20260831044011 61 185 2.0 2.0 0.00 0.00 0.00 74
20260831043511 63 210 0.0 0.0 0.00 0.00 0.00 72
20260831043011 63 242 0.0 0.0 0.00 0.00 0.00 72
20260831042511 63 0 0.0 0.0 0.00 0.00 0.00 71
20260831041510 64 0 0.0 0.0 0.00 0.00 0.00 70
20260831041011 64 242 2.0 2.0 0.00 0.00 0.00 70
20260831040510 64 226 0.0 0.0 0.00 0.00 0.00 70
20260831040011 64 212 2.0 2.0 0.00 0.00 0.00 70
20260831035510 64 202 2.0 2.0 0.00 0.00 0.00 69
20260831035011 64 243 4.0 4.0 0.00 0.00 0.00 70
20260831034510 63 261 2.0 2.0 0.00 0.00 0.00 70
20260831034010 64 237 4.0 4.0 0.00 0.00 0.00 70
20260831033510 64 232 4.0 4.0 0.00 0.00 0.00 70
20260831033011 63 262 4.0 4.0 0.00 0.00 0.00 71
20260831032511 64 257 4.0 7.0 0.00 0.00 0.00 69
20260831032005 64 236 4.0 4.0 0.00 0.00 0.00 69
20260831031010 64 247 7.0 7.0 0.00 0.00 0.00 69
20260831030510 64 241 7.0 7.0 0.00 0.00 0.00 69
20260831030011 64 240 7.0 7.0 0.00 0.00 0.00 70
20260831025504 64 230 9.0 9.0 0.00 0.00 0.00 70
20260831025010 64 229 7.0 7.0 0.00 0.00 0.00 70
20260831024510 64 231 7.0 9.0 0.00 0.00 0.00 70
20260831024010 64 235 7.0 9.0 0.00 0.00 0.00 70
20260831023510 64 240 7.0 9.0 0.00 0.00 0.00 70
20260831023010 64 235 9.0 9.0 0.00 0.00 0.00 70
20260831022510 64 232 7.0 9.0 0.00 0.00 0.00 70
20260831022010 64 231 9.0 9.0 0.00 0.00 0.00 70
20260831021511 64 215 4.0 7.0 0.00 0.00 0.00 70
20260831021010 64 214 7.0 7.0 0.00 0.00 0.00 70
20260831020503 64 203 7.0 7.0 0.00 0.00 0.00 70
20260831020004 64 210 7.0 7.0 0.00 0.00 0.00 70
20260831015503 64 207 7.0 7.0 0.00 0.00 0.00 69
20260831015004 64 217 7.0 9.0 0.00 0.00 0.00 70
20260831014510 64 215 7.0 9.0 0.00 0.00 0.00 70
20260831014010 64 217 9.0 9.0 0.00 0.00 0.00 70
20260831013510 63 224 9.0 9.0 0.00 0.00 0.00 70
20260831013011 63 235 9.0 9.0 0.00 0.00 0.00 71
20260831012510 63 238 9.0 9.0 0.00 0.00 0.00 71
20260831012010 63 246 9.0 9.0 0.00 0.00 0.00 70
20260831011510 63 251 9.0 11.0 0.00 0.00 0.00 70
20260831011010 63 247 9.0 11.0 0.00 0.00 0.00 71
20260831010510 63 243 9.0 9.0 0.00 0.00 0.00 70
20260831010010 63 245 9.0 9.0 0.00 0.00 0.00 69
20260831005510 64 249 9.0 9.0 0.00 0.00 0.00 69
20260831005010 64 252 9.0 9.0 0.00 0.00 0.00 68
20260831004511 64 253 9.0 9.0 0.00 0.00 0.00 68
20260831004010 63 255 11.0 11.0 0.00 0.00 0.00 69
20260831003511 63 257 11.0 11.0 0.00 0.00 0.00 69
20260831003010 63 261 11.0 11.0 0.00 0.00 0.00 69
20260831002511 63 262 11.0 11.0 0.00 0.00 0.00 69
20260831002012 64 261 11.0 11.0 0.00 0.00 0.00 68
20260831001511 63 258 11.0 11.0 0.00 0.00 0.00 68
20260831001010 63 262 11.0 11.0 0.00 0.00 0.00 68
20260831000510 63 254 11.0 11.0 0.00 0.00 0.00 67
20260831000011 63 250 9.0 11.0 0.00 0.00 0.00 67
20260830235511 64 245 9.0 9.0 0.00 0.00 0.00 67
20260830235011 64 249 9.0 9.0 0.00 0.00 0.00 64
20260830234511 64 248 7.0 7.0 0.00 0.00 0.00 64
20260830234011 64 243 7.0 7.0 0.00 0.00 0.00 63
20260830233510 64 238 7.0 7.0 0.00 0.00 0.00 59
20260830233011 66 264 4.0 4.0 0.00 0.00 0.00 58
20260830232511 66 266 7.0 7.0 0.00 0.00 0.00 57
20260830232017 66 269 7.0 7.0 0.00 0.00 0.00 57
20260830231511 66 269 7.0 7.0 0.00 0.00 0.00 56
20260830231010 66 267 7.0 7.0 0.00 0.00 0.00 56
20260830230010 66 268 7.0 7.0 0.00 0.00 0.00 56
20260830225510 66 271 4.0 4.0 0.00 0.00 0.00 57
20260830225010 66 272 4.0 4.0 0.00 0.00 0.00 56
20260830224510 66 279 7.0 7.0 0.00 0.00 0.00 56
20260830224011 66 286 7.0 7.0 0.00 0.00 0.00 56
20260830223510 66 288 7.0 9.0 0.00 0.00 0.00 58
20260830223011 66 281 9.0 9.0 0.00 0.00 0.00 58
20260830222510 66 275 9.0 9.0 0.00 0.00 0.00 58
20260830222010 66 269 9.0 9.0 0.00 0.00 0.00 57
20260830221511 66 265 9.0 9.0 0.00 0.00 0.00 57
20260830221010 66 263 9.0 9.0 0.00 0.00 0.00 57
20260830220511 66 268 9.0 9.0 0.00 0.00 0.00 57
20260830220011 66 266 9.0 9.0 0.00 0.00 0.00 57
20260830215510 66 264 9.0 9.0 0.00 0.00 0.00 57
20260830215010 66 265 9.0 9.0 0.00 0.00 0.00 57
20260830214511 66 261 9.0 11.0 0.00 0.00 0.00 57
20260830214011 66 253 9.0 9.0 0.00 0.00 0.00 57
20260830213511 68 263 9.0 9.0 0.00 0.00 0.00 56
20260830213011 68 264 9.0 9.0 0.00 0.00 0.00 56
20260830212510 68 265 9.0 9.0 0.00 0.00 0.00 56
20260830212014 68 270 9.0 9.0 0.00 0.00 0.00 56
20260830211510 68 270 9.0 9.0 0.00 0.00 0.00 55
20260830211010 68 266 9.0 9.0 0.00 0.00 0.00 55
20260830210511 68 265 9.0 9.0 0.00 0.00 0.00 56
20260830210010 68 260 9.0 9.0 0.00 0.00 0.00 55
20260830205510 68 257 9.0 9.0 0.00 0.00 0.00 55
20260830205010 68 268 9.0 9.0 0.00 0.00 0.00 55
20260830204510 68 273 9.0 9.0 0.00 0.00 0.00 55
20260830204010 68 275 9.0 9.0 0.00 0.00 0.00 55
20260830203511 68 265 11.0 13.0 0.00 0.00 0.00 55
20260830203011 68 266 11.0 11.0 0.00 0.00 0.00 54
20260830202510 68 267 11.0 13.0 0.00 0.00 0.00 53
20260830202016 70 263 11.0 13.0 0.00 0.00 0.00 53
20260830201510 70 269 11.0 13.0 0.00 0.00 0.00 52
20260830201010 70 271 11.0 13.0 0.00 0.00 0.00 52
20260830200511 70 270 13.0 13.0 0.00 0.00 0.00 51
20260830200010 70 272 13.0 16.0 0.00 0.00 0.00 51
20260830195511 70 268 13.0 16.0 0.00 0.00 0.00 50
20260830195010 72 264 18.0 18.0 0.00 0.00 0.00 49
20260830194510 72 261 16.0 18.0 0.00 0.00 0.00 49
20260830194011 72 262 16.0 18.0 0.00 0.00 0.00 48
20260830193511 72 262 16.0 16.0 0.00 0.00 0.00 48
20260830192510 72 263 16.0 16.0 0.00 0.00 0.00 47
20260830192010 72 264 16.0 16.0 0.00 0.00 0.00 47
20260830191511 72 262 16.0 16.0 0.00 0.00 0.00 47
20260830191010 72 265 16.0 16.0 0.00 0.00 0.00 47
20260830190511 72 268 13.0 16.0 0.00 0.00 0.00 47
20260830190011 72 271 16.0 18.0 0.00 0.00 0.00 46
20260830185511 72 271 18.0 18.0 0.00 0.00 0.00 46
20260830185010 72 272 16.0 18.0 0.00 0.00 0.00 46
20260830184510 72 272 18.0 18.0 0.00 0.00 0.00 46
20260830184011 72 269 18.0 18.0 0.00 0.00 0.00 46
20260830183510 72 271 16.0 18.0 0.00 0.00 0.00 46
20260830183010 72 273 16.0 18.0 0.00 0.00 0.00 47
20260830182014 72 273 16.0 18.0 0.00 0.00 0.00 46
20260830181511 72 276 16.0 18.0 0.00 0.00 0.00 46
20260830180511 72 274 16.0 18.0 0.00 0.00 0.00 46
20260830180011 72 278 16.0 18.0 0.00 0.00 0.00 45
20260830175509 72 277 16.0 16.0 0.00 0.00 0.00 46
20260830175010 72 276 16.0 18.0 0.00 0.00 0.00 46
20260830174510 72 280 16.0 18.0 0.00 0.00 0.00 45
20260830174011 72 281 16.0 18.0 0.00 0.00 0.00 45
20260830173510 72 277 16.0 18.0 0.00 0.00 0.00 46
20260830173011 72 276 16.0 18.0 0.00 0.00 0.00 45
20260830172511 72 280 18.0 18.0 0.00 0.00 0.00 45
20260830172015 72 281 16.0 18.0 0.00 0.00 0.00 45
20260830171510 72 280 16.0 20.0 0.00 0.00 0.00 45
20260830171010 72 278 18.0 22.0 0.00 0.00 0.00 44
20260830170510 73 278 18.0 20.0 0.00 0.00 0.00 44
20260830170010 73 275 16.0 18.0 0.00 0.00 0.00 44
20260830165510 73 277 18.0 18.0 0.00 0.00 0.00 43
20260830165011 73 279 16.0 18.0 0.00 0.00 0.00 42
20260830164511 73 280 18.0 20.0 0.00 0.00 0.00 42
20260830164011 73 281 18.0 20.0 0.00 0.00 0.00 42
20260830163511 73 286 22.0 25.0 0.00 0.00 0.00 41
20260830163010 73 277 22.0 25.0 0.00 0.00 0.00 41
20260830162511 73 276 20.0 22.0 0.00 0.00 0.00 41
20260830162010 73 279 22.0 25.0 0.00 0.00 0.00 41
20260830161510 73 282 20.0 22.0 0.00 0.00 0.00 41
20260830161010 73 289 18.0 20.0 0.00 0.00 0.00 41
20260830160510 73 277 22.0 27.0 0.00 0.00 0.00 41
20260830160010 75 273 25.0 27.0 0.00 0.00 0.00 40
20260830155511 75 277 25.0 27.0 0.00 0.00 0.00 40
20260830155010 75 279 20.0 25.0 0.00 0.00 0.00 41
20260830154510 75 280 22.0 27.0 0.00 0.00 0.00 41
20260830154010 75 272 22.0 27.0 0.00 0.00 0.00 40
20260830153510 75 277 22.0 25.0 0.00 0.00 0.00 41
20260830153010 75 272 25.0 29.0 0.00 0.00 0.00 40
20260830152511 75 272 22.0 27.0 0.00 0.00 0.00 39
20260830152012 75 272 20.0 27.0 0.00 0.00 0.00 41
20260830151511 75 279 22.0 27.0 0.00 0.00 0.00 39
20260830151010 75 288 27.0 31.0 0.00 0.00 0.00 40
20260830150510 75 288 22.0 27.0 0.00 0.00 0.00 39
20260830150011 75 281 27.0 29.0 0.00 0.00 0.00 38
20260830145510 75 286 20.0 22.0 0.00 0.00 0.00 40
20260830145011 75 275 25.0 29.0 0.00 0.00 0.00 39
20260830144511 75 272 22.0 25.0 0.00 0.00 0.00 39
20260830144011 75 279 25.0 27.0 0.00 0.00 0.00 40
20260830143510 75 280 25.0 27.0 0.00 0.00 0.00 40
20260830143010 77 274 22.0 27.0 0.00 0.00 0.00 38
20260830142510 77 265 20.0 25.0 0.00 0.00 0.00 39
20260830142011 75 270 18.0 22.0 0.00 0.00 0.00 40
20260830141510 75 269 20.0 25.0 0.00 0.00 0.00 40
20260830141010 75 266 18.0 20.0 0.00 0.00 0.00 40
20260830140510 75 277 25.0 27.0 0.00 0.00 0.00 39
20260830140011 75 268 16.0 18.0 0.00 0.00 0.00 40
20260830135511 75 263 20.0 22.0 0.00 0.00 0.00 40
20260830135009 75 240 22.0 27.0 0.00 0.00 0.00 39
20260830134511 75 221 18.0 20.0 0.00 0.00 0.00 39
20260830134011 75 274 22.0 25.0 0.00 0.00 0.00 40
20260830133511 75 269 22.0 25.0 0.00 0.00 0.00 40
20260830133011 75 279 20.0 22.0 0.00 0.00 0.00 39
20260830132510 77 240 18.0 22.0 0.00 0.00 0.00 40
20260830132011 75 269 25.0 27.0 0.00 0.00 0.00 39
20260830131510 75 276 22.0 27.0 0.00 0.00 0.00 40
20260830131010 75 260 16.0 20.0 0.00 0.00 0.00 44
20260830130510 75 252 11.0 13.0 0.00 0.00 0.00 42
20260830130010 75 238 13.0 18.0 0.00 0.00 0.00 44
20260830125511 73 275 16.0 18.0 0.00 0.00 0.00 46
20260830125011 73 286 18.0 25.0 0.00 0.00 0.00 47
20260830124511 73 284 20.0 25.0 0.00 0.00 0.00 47
20260830124011 75 273 16.0 20.0 0.00 0.00 0.00 46
20260830123510 73 270 18.0 20.0 0.00 0.00 0.00 46
20260830123011 73 272 22.0 25.0 0.00 0.00 0.00 45
20260830122510 73 259 22.0 25.0 0.00 0.00 0.00 45
20260830122013 73 250 22.0 25.0 0.00 0.00 0.00 45
20260830121511 75 251 18.0 22.0 0.00 0.00 0.00 44
20260830121011 73 243 20.0 22.0 0.00 0.00 0.00 45
20260830120511 75 256 20.0 25.0 0.00 0.00 0.00 43
20260830120010 75 252 22.0 25.0 0.00 0.00 0.00 44
20260830115511 73 255 20.0 25.0 0.00 0.00 0.00 43
20260830115011 73 245 22.0 27.0 0.00 0.00 0.00 42
20260830114510 73 261 29.0 31.0 0.00 0.00 0.00 44
20260830114010 75 248 18.0 22.0 0.00 0.00 0.00 44
20260830113511 73 266 27.0 29.0 0.00 0.00 0.00 44
20260830113011 73 232 25.0 29.0 0.00 0.00 0.00 43
20260830112509 75 248 25.0 29.0 0.00 0.00 0.00 43
20260830112011 75 226 16.0 20.0 0.00 0.00 0.00 45
20260830111511 73 236 16.0 18.0 0.00 0.00 0.00 47
20260830111010 73 263 20.0 25.0 0.00 0.00 0.00 46
20260830110511 73 251 20.0 27.0 0.00 0.00 0.00 46
20260830110011 72 245 16.0 20.0 0.00 0.00 0.00 50
20260830105511 73 265 22.0 27.0 0.00 0.00 0.00 46
20260830105010 73 247 20.0 25.0 0.00 0.00 0.00 47
20260830104510 73 260 25.0 27.0 0.00 0.00 0.00 48
20260830104012 72 267 25.0 29.0 0.00 0.00 0.00 48
20260830103511 72 269 22.0 27.0 0.00 0.00 0.00 48
20260830103011 73 278 22.0 25.0 0.00 0.00 0.00 46
20260830102510 73 251 18.0 20.0 0.00 0.00 0.00 47
20260830102010 72 256 25.0 29.0 0.00 0.00 0.00 48
20260830101511 72 264 25.0 29.0 0.00 0.00 0.00 50
20260830101010 73 275 25.0 29.0 0.00 0.00 0.00 49
20260830100511 72 257 27.0 31.0 0.00 0.00 0.00 49
20260830100011 72 269 29.0 34.0 0.00 0.00 0.00 50
20260830095510 72 253 25.0 31.0 0.00 0.00 0.00 50
20260830095011 73 259 25.0 29.0 0.00 0.00 0.00 51
20260830094511 72 256 25.0 29.0 0.00 0.00 0.00 52
20260830094011 72 267 27.0 29.0 0.00 0.00 0.00 54
20260830093511 73 249 16.0 20.0 0.00 0.00 0.00 54
20260830093011 73 245 20.0 25.0 0.00 0.00 0.00 52
20260830092510 73 226 18.0 22.0 0.00 0.00 0.00 53
20260830092012 73 235 18.0 22.0 0.00 0.00 0.00 53
20260830091511 73 248 22.0 25.0 0.00 0.00 0.00 52
20260830091011 73 222 22.0 25.0 0.00 0.00 0.00 52
20260830090510 73 240 16.0 20.0 0.00 0.00 0.00 54
20260830090010 72 257 13.0 16.0 0.00 0.00 0.00 56
20260830085510 73 260 13.0 16.0 0.00 0.00 0.00 56
20260830085011 72 270 18.0 20.0 0.00 0.00 0.00 56
20260830084511 72 262 11.0 13.0 0.00 0.00 0.00 59